Lapse_Rate
-1.4 -0.7 -0.2 1.3 6.3 6.5 6.5 6.5 6.5 6.5 6.5 5.8 5.8 5.9 6.3 6.3 6.4 6.5 6.5 5.9 6.5 5.9 5.2 4.6 5.2 5.9 6.1 5.6 5.3 5.9 6.8 6.7 7.7 7.6 7.2 6.9 7.2 7.1 7.4 7.2 7.2 7.3 7.9 7.0 6.4 6.4 6.0 6.7 6.3
-1.8 0.9 0.8 1.5 6.5 6.5 6.5 6.5 6.5 6.5 5.8 5.2 5.5 5.5 5.6 6.4 6.6 7.0 6.0 6.8 6.2 5.7 4.9 4.6 5.2 5.3 5.9 6.2 6.1 7.1 7.2 7.9 7.5 7.7 7.6 7.8 7.6 7.6 7.5 7.2 7.5 7.2 7.1 7.7 7.1 6.4 6.8 6.4 6.1
-0.7 1.2 2.4 6.5 6.5 6.5 6.5 6.5 6.5 5.9 4.9 5.4 5.6 5.4 6.5 6.4 6.8 7.4 6.6 6.7 6.0 5.2 5.0 4.6 5.2 5.3 6.6 5.9 6.3 6.4 6.7 7.2 7.7 7.4 7.9 7.6 7.8 7.7 6.6 6.8 6.3 7.2 7.0 7.1 7.3 7.3 6.7 6.5 6.1
1.5 2.2 1.4 6.5 6.5 6.5 6.5 6.5 5.1 5.8 5.0 3.7 4.6 5.7 6.3 6.6 7.6 7.2 6.7 6.1 4.7 4.7 4.7 4.4 4.8 4.8 6.9 6.0 5.3 5.7 6.8 7.6 7.3 7.2 6.7 7.0 7.3 7.8 7.4 5.8 5.6 6.4 7.2 7.2 6.8 6.9 6.3 6.3 5.8
1.3 1.5 6.5 6.5 6.5 6.5 6.4 5.4 4.8 6.3 5.2 5.5 5.1 6.3 6.2 7.2 7.1 6.0 4.9 5.3 4.1 4.5 4.3 3.6 4.2 4.7 5.8 7.1 5.4 5.8 5.7 7.0 6.7 7.2 5.9 6.3 7.0 7.3 7.6 6.8 5.6 5.5 6.5 6.6 6.8 6.1 7.0 5.8 5.0
3.0 1.3 6.5 6.5 6.5 6.5 6.1 4.8 5.2 5.4 5.1 5.9 5.8 5.6 6.5 7.1 6.6 5.3 4.9 4.0 5.0 3.9 3.7 3.3 3.7 4.5 4.3 5.9 5.0 5.0 5.1 5.4 5.3 5.3 5.5 5.8 6.1 7.1 7.4 6.9 6.5 6.4 5.7 5.5 5.6 7.1 6.9 6.1 4.6
5.9 6.5 6.5 6.5 6.5 6.5 6.5 5.4 5.7 5.1 5.2 5.2 5.3 6.2 6.6 6.8 6.4 5.2 4.3 4.5 4.4 3.7 3.3 2.8 3.0 4.0 4.3 5.5 5.0 5.3 5.2 4.7 4.4 4.0 3.9 4.7 5.3 6.2 6.6 6.5 6.7 7.0 6.1 5.5 5.4 6.3 6.6 5.5 4.3
2.2 5.6 6.5 6.5 6.5 6.5 6.3 5.8 5.3 4.7 6.2 5.9 4.9 6.3 6.3 7.1 5.7 4.5 3.9 2.9 3.2 3.2 3.2 2.9 3.3 4.2 4.2 4.2 4.0 5.3 4.9 4.8 4.3 4.0 3.2 3.3 3.9 4.6 5.1 5.4 5.8 6.4 6.2 5.8 5.5 5.4 5.3 4.7 4.2
4.2 6.5 6.5 6.5 6.5 6.5 5.1 6.1 5.7 5.2 3.7 5.6 6.4 5.9 6.3 6.2 4.9 3.6 3.4 2.2 1.6 2.9 2.6 3.9 4.1 4.6 4.5 4.7 4.3 4.4 4.9 4.8 4.5 4.1 3.3 3.1 3.2 3.6 3.8 4.1 4.8 5.2 5.4 6.0 5.5 5.5 5.5 4.4 3.7
4.7 6.5 6.5 6.4 5.9 6.5 5.2 5.2 5.1 5.5 5.7 5.8 5.8 6.0 5.6 5.2 4.1 2.9 2.1 1.8 2.2 2.5 2.9 3.6 3.7 3.7 4.5 5.0 4.5 4.6 5.2 4.9 4.8 3.9 3.1 3.1 3.2 2.9 3.4 3.5 4.0 4.1 4.5 4.4 5.2 5.2 4.2 3.4 3.3
5.8 6.5 6.4 5.6 4.3 4.9 5.4 5.7 5.9 5.3 6.4 5.8 5.5 5.7 5.5 4.7 3.8 2.8 2.7 3.2 3.1 3.0 2.9 3.1 3.9 4.3 4.6 5.3 5.5 5.5 5.6 5.3 4.9 4.2 3.5 3.1 3.1 2.9 3.0 3.3 4.2 4.6 4.0 4.0 4.4 3.9 3.5 3.6 3.5
6.3 5.7 5.4 6.1 4.6 5.0 6.1 5.5 5.3 4.8 5.5 5.3 5.2 5.6 5.1 4.3 3.4 3.1 3.1 3.4 3.3 3.5 3.5 3.7 4.6 4.3 5.3 6.2 5.9 6.1 5.5 5.7 5.4 4.9 4.5 3.6 3.5 3.0 3.1 3.7 4.1 4.7 4.4 4.5 4.7 4.6 4.2 3.8 3.5
6.4 6.2 5.4 4.2 4.1 4.8 4.5 5.4 5.7 5.5 5.1 5.2 5.7 5.5 4.7 3.9 4.0 3.9 3.9 3.7 3.6 3.6 3.8 3.4 4.8 5.1 5.7 5.9 6.1 5.9 5.5 5.3 5.1 4.9 4.8 4.2 3.5 3.5 3.5 3.6 4.4 4.3 4.6 4.6 5.0 5.1 4.7 4.1 3.3
5.2 5.0 5.5 4.7 4.9 5.7 5.8 5.9 5.5 5.8 5.3 5.5 5.6 4.8 4.4 4.6 4.6 4.5 4.0 3.8 3.8 4.3 4.1 4.1 5.0 5.5 5.8 5.8 6.0 6.1 6.2 5.8 5.6 5.4 4.9 4.4 4.3 3.8 4.0 4.3 4.6 5.0 5.1 5.1 5.6 5.4 5.1 4.4 3.5
4.4 6.5 6.0 5.9 5.9 6.2 4.9 6.5 6.5 5.0 5.4 5.6 5.2 4.9 5.1 5.1 4.5 4.4 4.2 4.3 4.3 4.9 4.8 4.7 6.0 5.5 5.1 5.6 5.8 5.8 6.4 6.2 5.6 5.3 4.8 4.3 4.1 3.9 3.6 4.4 4.8 4.5 4.5 5.2 5.5 5.6 5.4 4.8 4.0
6.5 6.5 6.5 6.4 5.9 5.6 6.3 6.5 6.2 4.8 4.7 4.6 4.4 4.1 5.1 5.8 5.2 4.6 4.3 4.3 4.5 4.7 4.6 4.7 5.5 5.0 5.1 5.2 5.6 5.8 5.9 5.7 5.8 5.4 4.9 4.4 3.9 3.8 3.5 4.0 4.7 4.9 5.4 5.0 5.1 5.0 6.0 4.9 4.3
6.5 6.5 6.5 6.5 5.6 6.4 6.4 6.5 5.9 4.8 4.6 4.3 3.5 3.7 4.4 4.8 5.0 4.7 4.3 4.8 5.4 4.4 4.2 4.5 4.7 4.4 5.0 5.4 5.5 5.5 5.5 5.4 5.6 5.3 5.1 4.7 4.1 3.8 3.3 3.3 4.7 5.1 5.0 5.9 5.0 5.2 5.7 5.4 4.9
6.5 6.5 6.5 6.5 6.5 6.5 6.5 6.5 6.1 4.8 4.6 3.9 3.3 3.4 3.7 4.2 4.6 4.9 4.6 5.6 4.8 3.9 4.1 4.6 4.8 4.5 5.3 5.1 4.9 5.1 5.0 5.4 5.9 5.3 5.4 4.8 4.3 4.0 3.2 2.9 3.7 4.2 5.3 6.0 5.8 5.1 5.3 5.5 5.1
6.5 6.5 6.5 6.5 6.5 6.5 6.5 6.5 6.5 4.8 4.9 3.8 3.1 3.4 3.5 4.0 4.5 5.1 5.2 5.5 4.4 3.8 4.2 4.6 4.5 4.5 4.3 4.5 4.5 4.7 4.7 4.7 5.2 5.0 5.0 4.6 4.5 4.1 3.8 2.8 2.8 3.6 4.7 5.8 5.9 6.0 5.5 5.4 5.9
6.5 6.5 6.5 6.5 6.5 6.5 6.5 6.5 6.5 5.6 5.5 3.9 3.5 3.4 3.6 4.6 4.5 5.7 5.7 4.3 3.8 3.6 4.1 4.8 4.5 4.5 4.7 4.3 4.4 4.2 4.4 4.5 4.8 4.6 4.4 4.4 4.2 4.3 4.3 3.3 2.8 3.2 3.7 4.9 5.7 6.0 6.3 5.9 5.7
6.5 6.5 6.5 6.5 6.5 6.5 6.5 6.5 6.5 6.3 5.2 4.3 3.9 3.8 3.6 4.0 4.2 4.9 4.6 3.5 2.9 3.1 3.9 4.6 4.1 4.5 4.2 4.4 4.5 4.4 4.5 4.7 4.4 4.1 3.8 4.1 4.3 4.2 3.9 3.6 3.2 3.0 3.7 4.3 5.3 6.1 6.9 6.3 5.5
6.5 6.5 6.5 6.5 6.5 6.5 6.5 6.5 6.5 6.5 6.5 6.0 4.5 2.6 3.2 3.9 4.3 4.7 4.0 3.7 3.0 3.3 3.5 3.7 3.8 3.7 4.5 4.1 3.5 3.2 3.5 3.8 4.3 3.8 3.6 3.6 3.7 3.8 3.6 3.5 3.3 3.2 3.6 4.0 4.8 5.8 6.7 6.3 6.0
6.5 6.5 6.5 6.5 6.5 6.5 6.5 6.5 6.5 6.5 6.5 6.5 5.4 3.2 2.9 3.2 3.4 3.7 3.6 3.6 3.4 2.9 2.5 2.6 2.8 2.9 3.1 3.1 2.8 2.9 3.0 3.5 3.8 3.4 2.8 2.8 3.1 3.3 3.2 3.1 3.3 3.2 3.6 3.9 4.6 5.2 5.7 6.5 6.1
6.5 6.5 6.5 6.5 6.5 6.5 6.5 6.5 6.5 6.5 6.5 6.5 5.5 3.7 3.3 2.9 3.2 3.4 3.8 3.3 2.7 2.4 2.0 2.1 2.0 2.3 2.6 2.5 2.4 2.4 2.6 3.0 3.0 2.8 2.7 2.6 2.8 2.8 2.8 2.7 2.8 3.4 3.6 3.8 4.4 5.0 5.1 5.2 6.3
6.5 6.5 6.5 6.5 6.5 6.5 6.5 6.5 6.5 6.5 6.5 6.2 6.3 5.3 2.7 3.5 2.7 2.7 3.0 2.4 2.1 2.0 2.0 2.5 1.6 1.9 2.1 2.2 2.1 2.4 2.5 2.8 2.9 2.7 2.6 2.7 2.4 2.2 2.2 2.4 2.5 3.1 3.7 3.8 4.2 4.7 4.9 4.8 5.3
6.5 6.5 6.5 6.5 6.5 6.5 6.5 6.5 6.5 6.5 4.8 3.7 4.6 4.8 3.0 3.3 2.8 2.5 2.5 1.9 1.8 1.6 1.4 1.5 1.4 1.7 1.8 1.9 1.6 2.1 2.3 2.5 2.7 2.5 2.2 2.3 2.3 2.4 2.4 1.9 2.2 2.8 3.1 3.3 3.8 4.4 5.0 5.2 4.5
6.5 6.5 6.5 6.5 6.5 6.5 6.5 6.5 6.5 6.5 6.5 5.3 4.7 4.4 3.8 3.3 2.7 2.6 2.2 1.7 1.2 1.0 1.4 1.1 1.1 1.5 1.4 1.3 1.2 1.4 1.7 2.4 2.0 1.9 1.8 1.6 1.8 2.3 1.7 1.6 1.8 2.1 2.4 2.8 3.6 4.0 4.6 5.2 5.0
6.5 6.5 6.5 6.5 6.5 6.5 6.5 6.5 6.5 6.5 6.5 6.5 6.1 5.9 4.1 3.1 2.5 2.3 2.0 1.4 1.1 1.1 1.1 0.8 0.7 1.0 0.9 0.9 0.7 1.3 1.3 1.6 1.1 0.9 0.4 0.5 0.8 1.0 1.0 1.4 1.6 1.8 1.8 2.1 3.2 3.5 4.5 5.0 4.9
6.5 6.5 6.5 6.5 6.5 6.5 6.5 6.5 6.5 6.5 6.5 6.5 6.1 5.5 3.8 3.1 2.5 2.2 1.8 1.6 1.3 1.1 0.7 -0.0 0.3 0.7 0.6 0.6 0.4 0.1 0.1 -0.1 -0.4 -0.7 -1.1 -0.8 -0.5 -0.1 0.8 1.5 1.8 1.9 1.7 1.9 2.9 3.9 4.5 4.6 5.0
6.5 6.5 6.5 6.5 6.5 6.5 6.5 6.5 6.5 6.5 6.1 5.8 5.7 4.9 3.7 2.7 2.2 2.0 1.8 1.5 1.2 0.5 0.3 -0.7 -0.2 0.1 -0.2 -0.2 -0.8 -0.8 -0.8 -1.0 -1.7 -2.1 -2.2 -1.8 -1.5 -0.9 0.3 1.4 2.0 2.2 2.1 2.0 3.2 4.0 4.3 4.5 4.9
Wind_Speed
16 20 3 4 5 6 4 4 5 4 7 6 9 17 13 7 6 6 5 9 16 15 20 21 27 27 27 28 29 28 28 28 30 29 29 30 29 28 25 24 23 25 26 23 25 25 25 23 23
10 6 4 3 5 5 2 4 9 6 10 16 10 6 9 5 7 3 6 11 16 17 19 21 26 27 26 27 28 29 29 28 30 28 28 28 29 28 28 28 27 26 25 25 24 26 26 26 26
5 3 4 4 4 4 5 6 6 4 4 3 6 7 5 5 5 2 6 13 17 16 19 22 26 26 26 28 29 30 30 29 29 30 28 28 28 28 30 29 28 27 27 26 27 25 25 25 26
3 4 5 6 9 5 7 8 8 6 8 10 10 9 6 4 3 4 10 15 13 17 22 21 28 27 26 30 30 30 31 31 33 34 34 30 27 28 30 29 28 28 27 27 28 30 26 25 26
3 3 5 5 6 4 5 6 8 8 6 4 3 4 5 3 5 7 8 13 9 15 21 22 28 27 25 29 30 31 34 33 33 31 33 33 29 28 30 28 29 28 28 28 27 27 28 27 28
4 4 5 4 4 3 4 8 8 12 9 5 8 6 3 4 5 6 10 9 17 14 20 22 23 28 28 28 30 30 34 33 32 33 34 31 31 30 30 30 29 29 29 28 28 26 26 27 28
3 5 5 7 7 3 3 5 5 6 6 5 6 5 4 4 6 7 8 15 16 18 21 23 23 25 24 29 30 29 33 33 33 34 35 31 28 29 28 28 30 30 29 28 28 29 28 28 26
4 4 7 5 8 5 2 4 4 8 4 2 4 4 3 2 7 7 8 7 9 17 18 19 20 21 21 24 28 29 32 31 32 34 36 30 29 30 28 27 28 28 28 27 28 27 28 28 26
3 5 4 7 8 6 5 6 5 3 7 5 5 5 6 5 8 9 6 7 8 9 14 20 19 19 21 19 21 24 25 27 29 30 32 27 24 26 28 25 29 28 27 27 27 27 26 27 22
5 5 2 2 8 10 6 8 8 6 5 5 6 6 8 7 7 7 7 7 7 9 8 17 20 20 19 18 19 18 19 21 22 24 27 25 25 25 26 26 27 27 26 25 26 26 25 20 16
3 4 2 7 9 11 10 6 3 13 5 2 7 7 6 7 7 7 7 5 6 6 8 14 18 19 15 18 17 18 16 18 20 24 26 25 24 24 23 21 23 21 21 18 19 17 16 16 15
7 7 6 2 6 8 5 5 5 4 6 8 8 7 6 7 7 7 7 7 7 6 7 11 18 18 17 18 15 15 13 17 18 20 23 23 20 22 21 19 20 20 22 18 16 12 14 14 15
8 3 6 8 11 8 11 6 7 5 7 9 9 8 7 7 6 6 7 6 6 7 7 8 15 17 16 14 13 14 13 15 17 19 22 20 18 17 20 20 20 20 22 20 13 11 7 7 10
5 9 6 8 8 4 9 4 5 5 7 8 8 7 7 7 6 4 5 5 6 5 6 7 12 18 18 15 16 14 15 17 18 17 21 23 19 18 18 17 18 20 21 21 18 9 5 5 5
9 9 7 4 3 4 10 2 3 7 8 8 8 7 6 6 6 4 4 5 5 4 5 7 10 17 16 15 16 15 17 16 16 17 19 22 21 20 17 16 14 21 21 21 20 16 6 4 4
5 5 4 4 5 5 3 4 5 9 9 9 8 7 6 5 5 4 5 5 6 5 6 7 13 14 16 15 15 16 17 16 15 16 19 23 24 24 19 14 14 22 21 18 12 12 7 3 3
1 3 4 2 6 4 4 3 6 9 9 9 8 8 7 6 5 4 5 5 4 5 6 7 8 7 12 16 15 16 16 13 15 17 18 22 21 23 19 15 17 22 17 13 10 11 11 5 3
7 4 3 5 5 5 5 3 6 9 9 11 10 9 9 8 7 6 6 5 5 5 6 6 5 8 12 12 12 12 13 14 18 17 17 19 19 21 19 17 17 20 10 12 12 14 12 7 4
5 5 6 2 2 5 7 6 10 9 8 9 9 9 8 8 7 6 6 6 6 6 6 5 6 7 5 4 6 6 7 7 10 16 19 19 20 20 19 17 17 18 10 12 14 10 14 10 3
2 5 3 2 2 2 5 9 9 12 11 10 11 9 9 7 6 6 5 6 5 4 5 6 6 7 5 3 4 3 4 4 10 17 19 21 20 20 19 17 14 15 9 13 14 15 9 7 11
3 6 5 3 2 2 2 7 7 9 7 8 9 9 8 10 9 6 6 7 5 5 4 6 6 7 6 9 7 6 6 9 7 8 9 18 20 20 19 18 17 15 11 9 13 12 16 9 9
4 3 6 8 5 3 4 5 5 11 15 13 9 9 9 9 8 6 7 6 6 4 5 7 6 7 8 10 6 8 6 5 6 7 10 13 18 19 20 20 19 16 13 11 11 11 10 10 11
3 2 6 4 2 3 2 2 7 6 11 17 12 11 10 9 9 8 7 7 6 6 5 6 6 7 7 7 7 6 7 5 5 6 10 9 16 18 21 22 19 15 13 11 11 13 11 8 8
6 6 8 5 2 2 4 6 6 6 11 8 9 12 12 10 9 8 7 8 6 5 6 6 7 6 6 6 7 8 8 8 7 8 8 8 8 14 19 22 20 18 15 11 10 9 12 10 8
3 5 3 3 3 6 3 4 9 7 8 11 19 16 13 13 10 9 9 7 6 6 5 5 6 6 6 6 7 7 7 7 7 7 7 9 8 9 12 20 17 15 17 17 15 10 10 12 9
6 5 5 7 3 4 4 6 7 5 8 7 12 15 15 12 11 10 9 8 7 6 6 6 6 5 6 6 7 6 6 4 4 6 7 6 7 8 19 19 18 19 19 17 17 8 8 10 10
5 4 4 6 2 3 4 7 10 3 2 4 11 16 16 13 13 11 9 8 7 6 6 6 6 5 5 5 5 6 6 7 6 7 10 7 12 15 18 19 18 18 18 18 15 8 10 9 9
2 4 3 3 2 4 4 4 7 7 9 7 11 17 15 13 12 11 10 9 6 7 6 6 7 6 5 5 5 5 6 8 9 10 10 10 14 16 16 16 17 17 17 17 13 10 11 11 9
2 2 1 2 4 5 2 6 7 11 13 16 15 16 18 16 14 12 10 8 8 7 6 6 6 5 5 5 6 7 7 8 11 8 11 13 16 16 14 14 13 11 12 14 11 12 12 12 12
4 6 6 4 5 3 3 7 3 2 7 12 14 14 14 14 14 12 11 10 9 7 6 6 5 5 5 5 6 7 7 8 9 10 13 15 13 16 15 15 12 10 10 11 11 12 13 12 13
Wind_Direction
322 314 323 43 58 64 40 52 106 64 74 67 77 87 101 59 54 130 298 354 5 3 359 357 0 2 3 4 1 2 2 1 2 4 6 4 1 355 355 352 352 351 347 346 344 341 341 338 322
325 316 39 73 93 87 29 88 79 93 120 125 84 82 51 66 22 75 14 343 17 4 1 353 2 5 8 11 7 8 6 2 3 4 7 5 3 358 356 356 352 347 343 346 343 336 340 334 328
317 230 68 77 93 136 138 128 123 86 83 121 109 57 66 336 36 35 323 11 15 3 4 0 7 9 11 14 13 13 9 7 2 359 2 4 4 4 1 355 350 348 344 343 342 339 337 333 325
4 15 34 73 89 12 113 156 132 96 34 60 112 75 83 26 36 10 16 22 14 6 5 1 10 13 14 18 14 15 14 12 12 13 6 1 4 4 2 358 354 349 347 344 341 336 341 336 328
39 64 61 82 68 80 54 104 125 109 102 107 124 93 98 26 19 41 32 26 21 1 5 6 11 11 9 17 14 16 13 16 11 10 6 3 1 5 4 360 357 352 348 347 342 333 329 328 322
19 92 85 97 93 64 52 98 87 86 100 84 82 98 75 339 36 43 38 24 25 10 10 8 6 9 12 17 18 19 14 12 14 12 8 7 2 4 3 358 356 354 351 350 342 339 334 332 323
103 82 134 130 131 77 86 59 74 87 65 8 170 99 129 17 38 60 43 29 22 15 17 9 3 2 8 21 17 18 15 13 10 8 5 5 5 6 2 359 356 351 352 351 347 343 339 333 327
105 85 123 145 159 183 128 83 119 62 56 263 38 132 112 35 53 48 41 21 18 21 19 9 2 3 7 21 18 18 18 13 10 6 1 0 357 359 360 358 355 354 351 350 350 347 347 338 334
69 79 148 171 146 159 138 97 20 25 76 50 62 98 133 83 61 45 13 4 16 16 11 6 359 5 19 22 17 20 19 15 12 7 4 1 356 356 351 349 355 354 351 349 350 350 350 342 334
67 92 89 206 150 144 115 120 132 87 81 74 77 71 81 69 71 60 34 23 15 13 2 9 6 2 23 16 15 17 14 12 11 8 3 2 0 354 353 350 347 349 352 346 349 348 348 345 335
50 116 141 13 100 114 128 73 40 129 59 144 146 123 97 77 64 66 43 24 22 6 8 358 5 5 23 14 6 8 10 10 9 10 8 1 1 359 355 350 345 342 348 346 341 345 344 341 339
94 54 81 42 86 90 94 87 67 33 137 131 121 115 100 85 62 57 46 27 18 11 3 358 8 8 6 12 13 11 11 14 13 9 6 8 4 357 356 351 346 347 344 335 336 334 340 342 342
72 78 51 89 81 75 82 88 125 102 118 109 103 91 98 93 80 61 61 33 22 21 3 3 16 10 3 1 9 17 17 20 12 13 9 4 3 360 352 351 349 346 340 332 328 329 338 341 343
107 87 85 65 82 92 110 137 85 204 145 133 120 120 109 102 102 63 56 35 25 22 13 14 18 7 8 4 354 3 16 25 19 14 8 5 1 354 352 352 350 347 341 336 326 321 324 334 341
105 77 42 102 119 127 123 120 132 172 154 146 137 141 132 130 104 107 86 59 34 1 21 22 24 14 5 1 1 356 3 20 22 13 8 5 5 355 349 350 351 347 344 342 341 329 322 333 342
79 85 117 242 140 169 103 251 194 179 154 172 166 165 156 150 137 120 84 64 36 27 37 28 27 15 8 357 360 4 10 22 19 12 10 4 2 359 351 345 353 347 348 348 347 339 323 326 347
284 182 138 227 197 153 165 235 202 175 170 186 185 183 172 168 147 132 108 83 57 51 46 34 26 14 9 357 355 0 358 16 18 15 10 4 360 357 354 346 347 351 348 353 352 340 336 323 335
189 207 147 175 223 155 195 226 203 195 181 188 192 188 181 173 176 157 138 113 86 63 52 41 30 22 13 356 349 357 0 1 12 12 7 3 1 357 355 348 350 350 352 353 356 347 337 321 319
173 146 130 131 105 157 222 218 207 213 204 193 197 189 186 176 175 156 151 140 101 59 51 35 39 20 17 359 1 4 360 359 2 6 359 2 2 359 357 354 351 354 347 349 354 352 346 343 303
28 125 98 56 156 158 227 241 207 206 215 193 190 191 184 169 152 162 132 89 89 91 50 36 45 33 15 352 357 2 356 356 357 360 360 357 358 358 359 354 352 348 349 352 352 360 354 334 344
37 158 180 158 143 347 314 284 197 227 206 198 199 186 173 166 161 151 114 112 103 76 48 56 53 41 24 9 6 12 360 2 3 359 352 349 351 350 357 355 357 351 351 356 349 356 359 346 339
148 321 131 132 120 210 132 274 239 208 208 211 195 169 169 164 146 144 131 117 117 105 69 69 58 45 30 21 27 32 13 3 353 349 343 348 351 350 356 357 356 352 349 354 354 348 353 356 351
166 117 126 125 104 69 209 77 276 159 220 219 197 180 181 173 154 147 139 128 131 97 91 80 68 48 28 28 39 40 21 353 344 351 348 351 350 351 356 356 355 351 350 347 352 355 349 356 354
138 72 43 41 59 353 211 170 268 200 223 209 196 195 175 166 154 147 136 129 114 93 88 78 75 50 31 32 37 41 26 359 354 358 354 352 345 345 354 354 352 349 349 349 347 348 353 348 359
52 90 13 349 357 221 339 168 246 232 230 199 197 189 170 165 151 148 143 139 127 108 94 97 78 52 34 34 39 38 23 3 357 359 353 351 346 345 348 346 348 348 345 347 347 350 352 352 345
186 163 160 204 197 256 355 234 251 214 246 197 187 174 157 162 156 154 151 147 138 127 112 102 87 68 42 35 32 32 29 7 358 358 356 351 344 335 341 339 346 348 346 349 350 348 353 350 346
195 197 164 103 57 56 225 272 297 206 142 144 153 158 167 164 158 153 147 149 143 137 135 121 101 79 56 43 33 30 23 9 3 359 359 348 343 340 340 340 344 347 347 347 352 351 348 346 351
178 165 84 352 168 264 279 268 249 247 212 181 172 174 169 162 159 156 149 148 145 146 137 111 99 90 65 48 39 29 21 8 3 359 354 347 340 339 338 342 344 344 346 348 353 352 349 348 353
148 233 21 141 160 188 241 253 221 230 191 198 188 182 172 170 164 160 155 148 149 138 132 112 97 83 58 41 39 31 16 6 4 1 353 348 339 338 337 341 340 342 343 345 351 354 352 349 353
194 194 162 137 234 235 147 260 227 228 224 194 191 179 175 167 161 158 155 153 149 142 136 116 101 82 57 51 47 28 18 11 7 1 355 349 344 341 339 342 342 341 341 338 349 358 354 348 352